Grand Junction, CO

4:06 PM MDT on May 24, 2018 (GMT -0600)
Walker

Weather History for KGJT - June, 2013

Change the Weather History Date:

Tuesday, June 25, 2013

  Actual Average Record
Temperature  
Mean Temperature 75 °F 75 °F  
Max Temperature 90 °F 91 °F 103 °F (1994)
Min Temperature 59 °F 59 °F 45 °F (1969)
Degree Days  
Heating Degree Days 0 0  
Month to date heating degree days 5 20  
Since 1 June heating degree days 5 20  
Since 1 July heating degree days 6056 5609  
Cooling Degree Days 10 10  
Month to date cooling degree days 228 175  
Year to date cooling degree days 283 226  
Since 1 June cooling degree days 228 175  
Growing Degree Days 25 (Base 50)    
Moisture  
Dew Point 30 °F    
Average Humidity 22    
Maximum Humidity 30    
Minimum Humidity 13    
Precipitation  
Precipitation 0.00 in 0.01 in 0.50 in (1983)
Month to date precipitation 0.01 0.39  
Year to date precipitation 3.42 4.22  
Snow  
Snow 0.00 in 0.00 in 0.00 in (2002)
Month to date snowfall 0.0 0.0  
Since 1 June snowfall 0.0 0.0  
Since 1 July snowfall 24.6 19.1  
Snow Depth 0.00 in    
Sea Level Pressure  
Sea Level Pressure 29.78 in    
Wind  
Wind Speed 6 mph (NW)    
Max Wind Speed 22 mph    
Max Gust Speed 26 mph    
Visibility 10 miles    
Events      
T = Trace of Precipitation, MM = Missing Value Source: NWS Daily Summary

Daily Weather History Graph

Daily Weather History Graph

Search for Another Location

Airport or City:

Astronomy

Jun. 25, 2013 Rise Set
Actual Time 5:49 AM MDT 8:44 PM MDT
Civil Twilight 5:17 AM MDT 9:16 PM MDT
Nautical Twilight 4:36 AM MDT 9:57 PM MDT
Astronomical Twilight 3:49 AM MDT 10:43 PM MDT
Moon 10:33 PM MDT (6/25) 8:31 AM MDT (6/25)
Length of Visible Light 15h 59m
Length of Day
14h 54m
Waning Gibbous, 92% of the Moon is Illuminated
Jun 25
Waning Gibbous
Jun 29
Last Quarter
Jul 8
New
Jul 15
First Quarter
Jul 22
Full

Hourly Weather History & Observations

Time (MDT) Temp. Dew Point Humidity Pressure Visibility Wind Dir Wind Speed Gust Speed Precip Events Conditions
12:53 AM 69.1 °F 26.1 °F 20% 29.66 in 10.0 mi Calm Calm - N/A   Clear
1:53 AM 64.9 °F 25.0 °F 22% 29.68 in 10.0 mi Calm Calm - N/A   Clear
2:53 AM 70.0 °F 25.0 °F 18% 29.68 in 10.0 mi WSW 5.8 mph - N/A   Clear
3:53 AM 66.0 °F 25.0 °F 21% 29.72 in 10.0 mi WNW 5.8 mph - N/A   Clear
4:53 AM 62.1 °F 30.0 °F 30% 29.75 in 10.0 mi Calm Calm - N/A   Clear
5:53 AM 60.1 °F 28.9 °F 31% 29.79 in 10.0 mi NE 5.8 mph - N/A   Scattered Clouds
6:53 AM 64.0 °F 30.9 °F 29% 29.80 in 10.0 mi Calm Calm - N/A   Clear
7:53 AM 72.0 °F 32.0 °F 23% 29.81 in 10.0 mi NNW 4.6 mph - N/A   Clear
8:53 AM 73.9 °F 32.0 °F 21% 29.83 in 10.0 mi Calm Calm - N/A   Clear
9:53 AM 77.0 °F 34.0 °F 21% 29.82 in 10.0 mi Variable 6.9 mph - N/A   Clear
10:53 AM 79.0 °F 35.1 °F 20% 29.82 in 10.0 mi WNW 4.6 mph - N/A   Clear
11:53 AM 82.0 °F 34.0 °F 18% 29.82 in 10.0 mi Variable 6.9 mph - N/A   Clear
12:53 PM 82.0 °F 30.9 °F 16% 29.82 in 10.0 mi SW 3.5 mph - N/A   Clear
1:53 PM 84.0 °F 30.0 °F 14% 29.82 in 10.0 mi SSW 8.1 mph - N/A   Partly Cloudy
2:53 PM 88.0 °F 30.9 °F 13% 29.78 in 10.0 mi NW 6.9 mph - N/A   Partly Cloudy
3:53 PM 87.1 °F 30.9 °F 13% 29.78 in 10.0 mi Variable 3.5 mph - N/A   Clear
4:53 PM 88.0 °F 30.9 °F 13% 29.77 in 10.0 mi NW 11.5 mph 23.0 mph N/A   Partly Cloudy
5:53 PM 88.0 °F 30.9 °F 13% 29.76 in 10.0 mi NW 21.9 mph 26.5 mph N/A   Partly Cloudy
6:53 PM 87.1 °F 30.0 °F 13% 29.75 in 10.0 mi NW 16.1 mph - N/A   Partly Cloudy
7:53 PM 86.0 °F 30.0 °F 13% 29.75 in 10.0 mi NW 12.7 mph - N/A   Clear
8:53 PM 81.0 °F 30.0 °F 16% 29.77 in 10.0 mi North 6.9 mph - N/A   Clear
9:53 PM 75.0 °F 28.9 °F 18% 29.80 in 10.0 mi NNE 8.1 mph - N/A   Clear
10:53 PM 71.1 °F 28.9 °F 21% 29.82 in 10.0 mi Calm Calm - N/A   Clear
11:53 PM 64.9 °F 27.0 °F 24% 29.83 in 10.0 mi Calm Calm - N/A   Clear